RH
50 52 59 61 65 65 62 55 65 67 72 73 67 52 38 49 59 80 80 62 35 23 23 24 24 25 25 22 21 21 24 29 31 32 30 29 28 25 23 20 19 19 16 14 16
56 58 60 64 66 75 70 71 71 80 89 86 71 56 48 60 67 80 94 72 39 28 25 25 25 26 29 24 20 20 21 22 27 28 26 29 25 22 21 19 19 17 15 13 15
58 64 65 70 74 84 64 68 84 79 87 79 63 61 52 62 77 94 94 78 49 32 27 27 26 27 29 25 22 21 19 21 24 25 26 26 23 21 21 19 17 15 15 14 15
60 65 65 75 81 81 68 62 85 77 79 66 56 52 50 68 91 96 92 86 60 36 30 28 29 29 30 28 23 21 19 19 20 23 25 25 21 21 19 18 16 15 14 14 14
62 65 69 79 88 92 82 78 73 76 68 68 63 53 61 82 88 94 95 91 58 37 29 29 32 29 31 28 24 22 20 19 19 22 24 22 19 20 19 17 16 15 15 14 14
56 65 73 80 87 93 94 90 77 73 64 66 75 69 78 91 88 91 87 80 56 38 30 31 33 28 29 28 25 23 20 20 20 22 23 22 20 20 18 18 17 15 15 15 15
59 70 72 81 87 97 96 98 92 88 96 86 82 85 87 89 90 88 82 69 52 38 31 35 32 28 28 28 26 25 23 21 22 22 24 21 21 20 18 17 16 15 15 15 15
59 66 70 84 81 91 96 97 95 94 97 96 95 90 86 88 88 81 70 59 47 37 38 38 32 28 28 28 28 27 24 27 25 24 24 21 19 19 17 16 16 16 15 15 15
58 62 63 66 74 80 87 91 86 86 84 90 91 87 85 81 77 71 66 63 46 40 44 38 31 28 28 28 31 29 28 25 27 27 24 21 16 16 16 15 16 15 15 14 14
61 59 68 72 69 69 75 78 78 77 79 79 81 78 73 74 65 66 68 60 42 47 46 35 30 29 29 32 37 28 27 25 25 26 22 21 18 17 16 16 15 14 14 13 13
60 62 66 73 73 76 74 74 72 74 84 77 76 75 74 71 62 67 61 49 49 49 40 34 34 34 26 25 23 25 23 22 24 22 18 19 17 16 16 17 16 15 14 14 14
62 65 68 74 74 76 74 68 69 72 75 72 68 68 74 68 64 65 55 51 50 46 38 36 34 29 27 24 23 22 22 23 22 21 18 21 18 16 17 17 17 16 15 15 14
62 64 68 66 68 69 67 63 63 65 68 68 66 65 70 64 61 59 56 54 46 44 39 34 33 29 26 25 23 25 20 20 18 22 21 18 16 17 18 18 19 18 17 17 15
56 61 63 61 61 63 64 64 62 61 65 65 62 64 61 59 57 53 55 49 43 45 42 39 34 30 27 29 24 20 23 22 22 20 23 21 22 13 19 19 19 18 17 15 14
49 56 61 66 67 64 64 64 67 61 70 59 60 58 56 50 50 50 48 49 40 41 35 41 36 33 33 31 26 25 23 23 23 24 20 20 24 13 20 21 19 18 16 15 14
43 49 54 57 61 63 62 62 54 53 61 56 52 50 49 45 45 43 41 41 36 36 36 38 36 35 33 30 27 26 25 25 25 23 28 27 26 15 21 18 18 18 16 17 16
39 41 46 50 51 55 55 55 51 58 52 52 50 47 46 44 40 41 40 39 35 37 38 33 33 35 33 30 28 26 24 35 30 35 32 34 35 21 14 15 18 19 18 18 18
36 37 41 46 47 50 54 49 57 57 52 45 41 40 42 40 40 39 37 38 35 29 37 37 33 33 33 30 26 27 23 33 24 30 31 34 33 19 16 17 17 20 20 19 20
32 37 36 43 46 49 46 56 53 52 47 41 35 36 38 38 38 36 37 37 35 32 29 36 36 33 34 32 28 26 30 28 38 43 36 32 23 18 20 21 22 23 23 21 21
25 35 35 40 43 40 43 51 50 50 49 44 40 36 35 36 35 36 36 34 32 31 30 28 35 34 34 32 31 27 29 30 35 23 24 30 24 29 26 24 24 25 22 21 20
25 28 32 33 34 35 47 46 44 45 47 46 45 43 38 37 35 38 37 33 32 31 30 30 27 36 33 31 34 34 33 34 31 31 33 25 25 22 22 23 23 23 21 20 20
29 31 28 29 30 37 42 41 42 43 42 41 41 43 42 42 42 43 40 39 39 37 34 35 34 44 32 37 35 34 34 34 34 28 37 32 27 17 21 22 22 22 20 21 20
23 27 31 27 31 35 35 36 37 37 41 41 40 38 37 38 38 41 41 40 37 37 34 31 32 40 31 33 35 34 33 30 31 32 35 30 19 18 20 24 25 23 20 19 19
21 25 25 28 32 31 29 32 34 34 32 32 36 38 37 38 36 38 37 34 32 31 31 27 29 24 24 23 29 34 33 33 29 42 29 27 20 20 25 27 25 22 19 19 19
18 23 25 29 31 33 30 29 25 24 29 30 31 31 30 31 34 38 39 37 34 33 31 28 27 32 30 29 31 30 29 35 36 30 29 23 26 22 21 22 19 18 19 20 20
19 22 22 24 25 27 33 34 31 31 31 25 24 26 26 28 27 26 31 32 31 35 34 34 31 35 33 32 33 35 33 33 34 32 33 26 24 17 15 15 17 18 20 20 21
24 23 22 24 24 25 27 30 32 34 32 31 33 35 30 27 25 24 24 23 23 24 25 26 28 30 23 29 24 18 18 21 21 22 21 24 14 16 16 16 15 18 21 25 27